This is the latest recevied weather packets stored in our database for station/object DB0TV-13. If no packets are shown the sender has not sent any weather packets the latest 10 day(s).
| Time | Temp. | Humidity | Pressure | Rain* | Wind** | Luminosity | Snow |
|---|---|---|---|---|---|---|---|
| 1778063419 | 8.33° C | 98% | 1005.7 hPa | 0.25 mm | - | 78 W/m² | - |
| 1778062819 | 8.33° C | 98% | 1005.7 hPa | 0.25 mm | - | 77 W/m² | - |
| 1778062220 | 8.33° C | 98% | 1005.6 hPa | 0.51 mm | - | 86 W/m² | - |
| 1778061619 | 8.33° C | 98% | 1005.6 hPa | 0.25 mm | - | 78 W/m² | - |
| 1778061020 | 8.33° C | 98% | 1005.5 hPa | 0.25 mm | - | 93 W/m² | - |
| 1778060419 | 8.33° C | 98% | 1005.5 hPa | 0.51 mm | - | 97 W/m² | - |
| 1778059819 | 8.33° C | 98% | 1005.3 hPa | 0.51 mm | - | 87 W/m² | - |
| 1778059219 | 8.33° C | 98% | 1005.3 hPa | 0.51 mm | - | 76 W/m² | - |
| 1778058619 | 8.33° C | 98% | 1005.3 hPa | 0.51 mm | - | 72 W/m² | - |
| 1778058019 | 8.33° C | 98% | 1005.1 hPa | 0.76 mm | - | 72 W/m² | - |
| 1778057419 | 8.33° C | 98% | 1005.1 hPa | 1.02 mm | - | 65 W/m² | - |
| 1778056819 | 8.33° C | 98% | 1004.9 hPa | 1.02 mm | - | 57 W/m² | - |
| 1778056219 | 8.33° C | 98% | 1004.8 hPa | 0.76 mm | - | 40 W/m² | - |
| 1778055619 | 8.33° C | 98% | 1004.8 hPa | 0.76 mm | - | 79 W/m² | - |
| 1778055019 | 8.33° C | 98% | 1004.7 hPa | 0.51 mm | - | 62 W/m² | - |
| 1778054419 | 8.33° C | 98% | 1004.7 hPa | 0.51 mm | - | 52 W/m² | - |
| 1778053819 | 8.33° C | 98% | 1004.7 hPa | 0.51 mm | - | 57 W/m² | - |
| 1778053219 | 8.33° C | 98% | 1004.7 hPa | 0.25 mm | - | 50 W/m² | - |
| 1778052619 | 8.33° C | 98% | 1004.7 hPa | 0.25 mm | - | 51 W/m² | - |
| 1778052019 | 8.33° C | 98% | 1004.7 hPa | 0.51 mm | - | 59 W/m² | - |
| 1778051419 | 8.33° C | 98% | 1004.6 hPa | 0.51 mm | - | 56 W/m² | - |
| 1778050819 | 8.33° C | 98% | 1004.6 hPa | 0.25 mm | - | 57 W/m² | - |
| 1778050219 | 8.33° C | 98% | 1004.7 hPa | 0.51 mm | - | 68 W/m² | - |
| 1778049619 | 8.33° C | 98% | 1004.5 hPa | 0.51 mm | - | 46 W/m² | - |
| 1778049019 | 8.33° C | 98% | 1004.5 hPa | 0.51 mm | - | 39 W/m² | - |
* Rain latest hour (hover to see other rain measurements)
** Current wind speed in m/s (hover to see current wind gust speed)